Regional Weather Roundup
Issued by NWS

Home | Current Version | Previous Version | Text Only | Print | Product List | Glossary On
Versions: 1 2 3 4 5 6 7 8 9 10 11 12 13 14 15 16 17 18 19 20 21 22 23 24 25 26 27
000
ASUS42 KKEY 270610
RWRKEY

FLORIDA REGIONAL WEATHER ROUNDUP FOR THE FLORIDA KEYS
NATIONAL WEATHER SERVICE KEY WEST FLORIDA
200 AM EDT THU JUL 27 2017

...SOUTH FLORIDA AND THE KEYS...

CITY           SKY/WX    TMP DP  RH WIND       PRES   REMARKS
FORT MYERS     CLOUDY    79  73  82 N3        30.04S
SW REGIONAL AP CLOUDY    81  75  82 NE6       30.05S
NAPLES         CLOUDY    78  73  84 NE6       30.03F
MIAMI          PTCLDY    84  73  69 E6        30.04R HX  90
WEST KENDALL   PTCLDY    80  74  81 CALM      30.03S
HOMESTEAD      PTCLDY    83  77  82 E5        30.02S HX  91
MARATHON       PTCLDY    85  77  77 E5        30.02S HX  95
BOCA CHICA NAS PTCLDY    83  77  82 E7        30.03S HX  92
KEY WEST INTL  PTCLDY    85  76  74 E6        30.03S HX  94

...INTERNATIONAL WEATHER...

CITY           SKY/WX    TMP DP  RH WIND       PRES   REMARKS
NASSAU BAHAMAS PTCLDY    84  70  61 E5        30.05R
CANCUN MEXICO  MOCLDY    81  79  94 NE3       29.99F
COZUMEL MEXICO PTCLDY    82  79  89 CALM      29.98F HX  93

ADJACENT COASTAL WATERS...

STATION/POSITION TIME  SKY/WX   TEMP    WIND        PRES    WAVE
                                AIR SEA DIR/SP/G            HT/PER
                 (UTC)          (F)     (DEG/KT/KT) (MB)    (FT/S)
PULASKI SHOAL LI 0600            85     100/  4/  5 1016.8F
SAND KEY         0559            84                 1017.4S
LONG KEY         NOT AVBL
MOLASSES REEF    0500            85 86   90/ 11/ 12 1016.9F
FOWEY ROCKS      0500            85 85   90/ 13/ 14 1017.4F
Buoy 42097       0530               87                N/A     1/ 3

$$




USA.gov is the U.S. government's official web portal to all federal, state and local government web resources and services.